This is the latest recevied weather packets stored in our database for station/object KJ4AJP. If no packets are shown the sender has not sent any weather packets the latest 10 day(s).
| Time | Temp. | Humidity | Pressure | Rain* | Wind** | Luminosity | Snow |
|---|---|---|---|---|---|---|---|
| 1777594150 | 16.11° C | 47% | 1014.8 hPa | 0 mm | - | 18 W/m² | - |
| 1777593846 | 16.67° C | 47% | 1015 hPa | 0 mm | - | 24 W/m² | - |
| 1777593543 | 16.67° C | 45% | 1015.1 hPa | 0 mm | - | 30 W/m² | - |
| 1777593243 | 16.67° C | 46% | 1015 hPa | 0 mm | - | 33 W/m² | - |
| 1777592943 | 17.22° C | 46% | 1015 hPa | 0 mm | - | 37 W/m² | - |
| 1777592637 | 17.22° C | 44% | 1014.9 hPa | 0 mm | - | 39 W/m² | - |
| 1777592334 | 17.78° C | 45% | 1015 hPa | 0 mm | - | 47 W/m² | - |
| 1777592030 | 17.78° C | 43% | 1015.2 hPa | 0 mm | - | 61 W/m² | - |
| 1777591726 | 17.78° C | 41% | 1015 hPa | 0 mm | - | 77 W/m² | - |
| 1777591421 | 17.78° C | 47% | 1014.9 hPa | 0 mm | - | 85 W/m² | - |
| 1777591118 | 17.78° C | 44% | 1015 hPa | 0 mm | - | 70 W/m² | - |
| 1777590813 | 17.78° C | 44% | 1015.3 hPa | 0 mm | - | 73 W/m² | - |
| 1777590510 | 17.78° C | 44% | 1015.1 hPa | 0 mm | - | 71 W/m² | - |
| 1777590206 | 17.78° C | 46% | 1015 hPa | 0 mm | - | 75 W/m² | - |
| 1777589904 | 17.78° C | 44% | 1015.2 hPa | 0 mm | - | 107 W/m² | - |
| 1777589599 | 17.78° C | 40% | 1015.3 hPa | 0 mm | - | 116 W/m² | - |
| 1777589297 | 17.78° C | 42% | 1015.1 hPa | 0 mm | - | 82 W/m² | - |
| 1777588995 | 17.78° C | 42% | 1014.8 hPa | 0 mm | - | 105 W/m² | - |
| 1777588690 | 18.33° C | 39% | 1014.9 hPa | 0 mm | - | 101 W/m² | - |
| 1777588386 | 17.78° C | 40% | 1015 hPa | 0 mm | - | 133 W/m² | - |
| 1777588082 | 18.33° C | 39% | 1014.8 hPa | 0 mm | - | 110 W/m² | - |
| 1777587778 | 17.78° C | 40% | 1015 hPa | 0 mm | - | 141 W/m² | - |
| 1777587477 | 18.33° C | 38% | 1015 hPa | 0 mm | - | 150 W/m² | - |
| 1777587174 | 18.33° C | 37% | 1015.1 hPa | 0 mm | - | 130 W/m² | - |
| 1777586869 | 18.33° C | 39% | 1015.1 hPa | 0 mm | - | 139 W/m² | - |
* Rain latest hour (hover to see other rain measurements)
** Current wind speed in m/s (hover to see current wind gust speed)